NEVŞEHİR ÇAT BALON UÇUŞ SAHASI

  • SEKTÖREL METEOROLOJİK DEĞERLENDİRME

  • ÇAT UÇULMAZ

Meteorolojik şartların belirlenen saat aralığında uçuş için uygun olmadığı değerlendirilmiştir.

  • GÜNCELLEME TARİHİ ve SAATİ :

  • 13.08.2022 - 04:41

  • GEÇERLİ TARİH ve SAATLER :

  • 13.08.2022 - 04:40 - 16:40

Büyük Harita İçin Tıklayınız

Sıcaklık
Basınç
Gün Doğum Saati
Gün Batım Saati
Bu bölümde yer alan bildirim meteorolojik veriler doğrultusunda ilgili gün ve zaman aralığında planlanan uçuşlara dair bağlayıcı niteliktedir. Kırmızı ve Sarı bayrak durumlarında kalkış uygunluğu verilmeyecektir. Yeşil bayrak durumunda nihai uçma kararı pilot ve işletme sorumluluğundadır
Kırmızı ve/veya sarı bayrağın ilan edildiği durumlarda yalnızca öğretmen pilot ile beraber yapılacak eğitim uçuşları (çift kumanda) için SHGM yetkilileri ile irtibata geçilerek eğitim uçuşları gerçekleştirilebilecektir.

METAR

LTAZ 131450Z 01007KT 330V140 9999 FEW040 32/07 Q1008 RMK RWY29 01009KT 350V050

TAF

TAF LTAZ 131040Z 1312/1412 01012KT CAVOK TEMPO 1317/1321 03015G25KT BECMG 1321/1323 VRB02KT

METAR - TAF bilgileri Aviation Weather Center'dan alınmaktadır.

AIRGRAM

Airgram Meteoroloji Genel Müdürlüğü'nden alınmaktadır.

Meteorolojik veriler sitede bilgilendirme amacıyla yer almaktadır.